Location: C�mpuri de-Sus
(45.9500°N, 22.5500°E)
Time: 04:43:58
(UTC+00:00)

Cosmos 1269 Rocket - Pass Details

Date: 24 October 2021
Orbit: 773 x 778 km, 74.1° (Epoch: 30 November)

Event Time Altitude Azimuth Distance (km) Brightness Sun altitude
Rises 16:09:52 0° 337° (NNW) 3,268 7.4 -7.9°
Reaches altitude 10° 16:12:16 10° 337° (NNW) 2,335 6.7 -8.3°
Maximum altitude 16:17:35 85° 251° (WSW) 784 4.1 -9.2°
Drops below altitude 10° 16:22:51 10° 162° (SSE) 2,315 6.4 -10.1°
Sets 16:25:13 0° 162° (SSE) 3,238 7.1 -10.5°
